Wetbulb
65.42 71.34 72.83 73.01 73.21 73.22 72.87 72.60 73.10 73.75 74.18 74.49 74.50 74.28 74.53 74.64 74.50 74.00 73.99 73.63 73.26 73.39 72.88 72.91 72.87 72.77 72.79 72.62 72.74 72.77 72.99 72.86 72.65 72.94 72.63 72.50 71.95 71.95 72.12 72.14 72.03 71.27 72.43
67.95 72.16 72.42 72.59 73.11 73.30 73.00 72.57 72.77 73.57 74.16 74.45 74.28 74.27 74.28 74.13 73.98 73.90 73.69 73.61 73.16 73.11 72.45 72.54 72.64 72.79 72.47 72.24 72.35 72.55 72.62 72.21 72.27 72.36 72.80 72.30 71.68 71.63 71.80 71.96 71.90 72.00 72.22
69.41 72.66 73.66 72.05 72.67 73.13 73.14 72.80 72.95 73.70 74.10 74.00 74.02 73.89 73.84 73.91 73.88 73.64 73.52 73.37 73.16 73.04 72.20 72.19 72.27 72.52 72.22 71.84 71.99 72.17 72.02 71.74 71.67 71.54 71.48 72.35 71.56 71.26 71.68 71.91 72.00 71.37 71.35
70.34 72.69 73.52 71.82 72.40 72.84 72.67 72.66 72.87 73.44 73.83 73.65 73.74 73.54 73.47 73.47 73.48 73.39 73.29 73.11 73.15 73.14 71.93 71.63 71.77 71.78 71.43 71.45 71.32 71.27 71.31 70.85 70.31 70.50 71.81 72.25 71.38 71.36 71.56 71.59 71.40 71.23 70.96
70.55 72.51 73.18 71.43 71.58 72.43 72.55 72.59 72.92 72.99 72.86 73.02 73.27 73.71 73.61 73.52 73.40 73.26 72.96 73.27 73.57 73.27 72.11 71.56 70.66 70.28 70.10 69.68 69.59 69.61 69.17 68.65 68.41 70.22 71.68 71.63 71.78 71.30 71.51 71.45 71.47 71.72 71.26
70.69 72.11 71.44 70.53 71.14 71.91 72.40 72.53 72.65 72.68 72.28 72.29 72.71 73.33 73.44 73.64 73.46 73.01 72.58 73.48 73.67 73.24 72.07 71.28 70.25 69.86 69.08 68.55 68.53 68.64 68.39 68.10 67.98 69.88 70.91 70.77 71.51 71.68 71.51 71.27 71.22 71.41 71.47
70.25 71.69 72.57 69.94 70.86 71.60 72.38 72.60 72.27 71.84 71.69 72.15 72.75 72.88 73.23 73.38 73.37 72.80 72.75 73.04 73.27 73.61 73.07 71.63 70.69 69.81 69.00 68.64 68.68 68.33 68.21 68.17 69.41 70.21 70.55 71.30 71.59 71.89 71.63 71.01 71.19 70.70 71.06
69.91 71.42 72.12 71.33 71.04 70.93 71.31 71.53 70.94 70.91 70.97 71.59 72.16 72.54 73.03 72.90 72.22 72.31 72.56 72.38 72.48 72.13 72.22 71.51 70.53 69.93 69.47 68.97 68.45 68.28 68.17 68.77 69.82 70.28 70.49 71.81 70.06 71.12 71.26 71.40 71.10 70.49 70.51
69.69 70.54 71.82 72.59 72.21 70.38 69.77 69.84 69.70 70.34 70.49 70.76 70.92 71.37 71.75 71.28 71.12 71.82 72.19 72.06 71.77 71.53 71.46 70.82 70.13 69.74 69.73 69.36 69.13 68.96 68.40 68.56 70.98 71.14 70.26 71.89 69.10 71.48 71.93 71.31 71.24 70.73 70.72
69.12 69.82 70.85 72.07 72.67 72.86 72.92 69.15 69.37 69.79 69.86 70.05 70.50 70.48 70.26 70.35 71.00 71.27 71.18 71.58 71.35 71.20 70.95 70.88 70.61 70.13 70.02 69.88 69.68 68.94 68.58 67.55 71.24 71.20 72.08 72.50 69.08 70.82 71.56 71.44 71.10 70.68 70.05
67.79 69.03 70.06 70.67 71.82 72.31 72.55 71.95 70.39 70.27 69.91 69.84 70.53 70.00 69.52 72.54 72.62 72.27 70.75 70.47 70.67 69.53 69.60 69.68 69.56 69.14 68.74 68.77 68.60 68.26 68.06 71.90 71.95 72.07 72.87 68.76 69.20 71.24 71.95 71.26 70.75 69.88 69.55
66.25 67.70 67.89 68.57 69.75 70.41 70.86 72.27 72.64 72.42 72.60 72.64 72.55 72.45 72.41 72.37 72.25 71.34 70.13 69.16 69.24 68.40 68.60 68.62 68.52 67.99 68.47 71.41 71.69 68.90 71.62 72.21 72.09 71.55 72.19 67.23 70.33 71.19 70.95 69.93 69.40 69.14 68.65
66.43 67.27 67.15 66.98 68.15 68.33 70.11 70.51 71.11 71.61 71.52 71.50 72.16 72.02 71.14 70.60 70.97 70.52 70.77 70.69 71.34 69.55 71.30 70.13 70.42 70.47 70.28 71.20 71.82 71.28 70.87 70.30 71.40 70.63 69.45 67.49 70.04 70.55 70.20 69.69 68.51 68.04 67.18
66.20 66.74 67.44 67.10 68.21 67.46 68.79 67.63 69.23 69.44 70.01 70.10 70.40 70.09 69.07 68.80 68.93 69.07 69.05 69.08 69.72 70.08 70.11 70.63 70.11 70.49 68.98 67.23 67.91 69.55 68.89 69.58 69.64 70.15 68.22 66.50 68.32 69.49 69.59 68.63 67.72 66.58 65.99
67.42 67.70 67.72 68.20 68.43 67.10 66.53 66.93 67.03 67.69 68.59 69.33 68.49 68.77 68.47 68.15 68.06 68.03 67.51 67.21 66.73 67.24 68.05 68.35 68.25 66.82 67.61 66.51 67.45 67.45 66.26 65.91 66.19 66.63 67.43 64.29 66.07 68.08 68.21 67.81 66.89 65.81 64.82
68.64 68.23 68.00 67.58 67.84 67.22 65.96 66.16 67.38 68.46 68.57 67.49 67.05 67.51 67.52 67.38 66.78 66.22 65.77 65.86 65.98 65.92 66.53 67.18 66.79 65.85 66.46 65.54 63.72 65.81 65.81 65.31 65.24 64.48 63.46 61.65 61.92 64.39 65.81 65.87 65.10 64.02 62.83
68.80 68.86 67.26 67.18 66.38 65.28 65.83 65.56 67.27 67.80 66.35 65.21 62.67 64.48 64.91 65.04 64.94 64.49 64.49 64.29 64.06 62.42 62.59 63.07 63.40 63.53 62.72 60.86 62.51 63.40 63.68 62.99 62.11 60.67 60.38 60.00 59.05 59.58 60.86 61.61 61.17 60.95 60.33
68.93 68.30 67.22 66.05 65.12 66.07 67.13 67.36 66.07 63.72 61.73 58.72 59.67 60.28 60.73 61.60 62.40 62.81 62.66 61.67 60.61 59.09 60.21 60.11 60.50 60.15 59.66 59.93 60.91 61.63 60.44 59.54 58.47 57.90 57.41 57.77 56.47 56.29 57.16 57.80 57.67 57.77 58.15
68.65 68.66 66.68 65.61 63.92 66.10 63.67 60.03 58.53 56.78 56.08 56.88 57.69 56.68 57.15 58.13 58.60 60.80 60.33 58.71 58.35 58.02 58.51 58.42 57.26 57.48 55.71 57.49 59.04 58.24 57.06 57.28 56.78 55.92 54.63 54.49 54.13 54.99 54.34 54.06 53.83 53.80 54.35
68.00 68.47 67.29 63.91 63.51 60.66 58.75 57.75 56.65 56.75 55.60 55.49 55.69 56.64 55.49 56.73 56.90 57.63 56.87 56.57 55.73 57.13 56.71 56.68 56.48 55.01 55.22 58.33 55.57 52.92 52.52 53.12 54.95 53.61 51.69 51.41 51.03 50.76 52.31 52.36 52.79 51.09 51.49
66.76 65.82 61.62 60.45 58.79 58.70 58.35 57.83 57.83 57.54 55.13 53.49 53.79 52.58 52.91 54.56 55.15 55.68 55.10 55.63 54.85 55.60 55.51 55.12 54.66 53.94 54.78 56.63 54.18 50.81 49.25 48.98 47.98 47.52 48.54 47.63 46.13 46.16 47.92 48.11 48.37 48.50 48.45
61.52 60.81 60.68 58.66 58.56 59.20 58.65 57.52 56.51 55.98 52.19 51.56 51.05 50.67 50.74 51.65 52.28 52.46 52.97 52.44 52.83 52.88 53.77 54.35 54.36 52.63 53.26 56.17 55.13 52.30 46.98 46.91 45.28 45.06 44.86 43.63 43.45 44.14 43.95 45.48 46.00 45.74 46.21
57.55 56.83 56.67 56.71 56.51 55.28 54.84 53.59 52.60 52.41 51.44 50.55 50.38 50.52 49.94 50.35 50.68 51.07 50.94 51.64 52.10 53.02 53.35 53.00 53.25 53.07 51.70 53.91 53.64 54.37 48.68 47.09 44.60 43.53 41.76 41.38 40.89 40.95 41.29 42.09 43.82 44.51 44.75
56.29 56.95 56.94 56.59 56.25 56.63 57.69 55.81 55.34 54.00 53.20 52.81 52.61 52.52 50.61 50.10 50.38 51.05 51.03 50.89 51.48 51.10 51.77 51.41 51.12 52.14 52.26 51.51 51.49 50.91 51.38 51.46 48.22 40.42 40.24 39.49 40.11 39.54 39.62 39.95 40.18 42.33 42.87
58.11 58.02 57.41 57.41 57.37 58.22 60.14 60.32 58.50 53.64 52.94 53.91 50.53 51.04 49.97 49.41 49.63 50.30 50.89 51.19 51.73 51.58 51.52 51.13 50.90 50.51 51.51 50.99 51.17 50.54 49.44 48.98 49.07 45.31 38.29 36.17 38.22 39.44 38.90 38.86 39.42 41.75 41.91
58.34 59.37 58.17 57.59 58.88 59.92 60.01 59.45 57.91 56.38 50.96 51.91 51.18 50.34 50.56 49.57 50.90 50.70 49.97 50.57 50.80 50.55 49.15 49.76 49.89 49.03 49.86 50.17 50.10 50.04 49.91 48.82 46.72 45.49 41.83 38.35 37.95 36.80 37.63 37.76 38.63 40.45 41.26
MSLP
1012.94 1013.38 1014.18 1014.76 1015.08 1015.32 1015.34 1015.22 1015.34 1015.52 1016.02 1016.22 1016.71 1017.07 1017.32 1017.70 1017.74 1017.92 1018.17 1018.43 1018.56 1018.49 1018.52 1018.78 1019.00 1019.02 1019.15 1019.25 1019.36 1019.41 1019.44 1019.51 1019.49 1019.71 1019.83 1019.89 1020.04 1020.14 1020.26 1020.38 1020.19 1020.12 1020.59
1012.48 1013.25 1014.12 1014.56 1015.00 1015.26 1015.45 1015.35 1015.55 1015.62 1016.01 1016.32 1016.76 1017.23 1017.60 1017.87 1017.97 1018.10 1018.20 1018.39 1018.60 1018.77 1018.84 1018.76 1019.07 1019.38 1019.41 1019.63 1019.75 1019.72 1019.70 1019.82 1019.80 1019.84 1019.91 1020.05 1020.24 1020.34 1020.44 1020.58 1020.44 1020.74 1020.93
1012.60 1013.22 1014.00 1014.62 1015.00 1015.24 1015.47 1015.43 1015.64 1015.76 1015.98 1016.39 1016.70 1017.20 1017.64 1018.03 1018.26 1018.32 1018.41 1018.60 1018.80 1018.84 1019.07 1019.18 1019.24 1019.48 1019.76 1019.86 1020.04 1020.05 1020.07 1020.12 1020.18 1020.19 1020.07 1019.64 1019.88 1020.54 1020.67 1020.77 1020.84 1020.99 1021.18
1012.44 1013.15 1013.80 1014.60 1014.99 1015.30 1015.52 1015.47 1015.67 1015.98 1016.26 1016.55 1016.86 1017.15 1017.52 1017.95 1018.34 1018.52 1018.60 1018.55 1018.80 1018.96 1018.93 1019.30 1019.48 1019.70 1019.95 1020.12 1020.26 1020.37 1020.43 1020.44 1020.54 1020.50 1020.02 1019.80 1019.88 1020.61 1020.86 1021.02 1021.14 1021.21 1021.37
1012.90 1013.19 1013.76 1014.45 1014.81 1015.13 1015.39 1015.59 1015.86 1016.15 1016.46 1016.70 1017.00 1017.25 1017.61 1017.94 1018.33 1018.57 1018.73 1018.77 1018.80 1019.11 1019.25 1019.38 1019.62 1019.77 1020.07 1020.42 1020.48 1020.60 1020.72 1020.72 1020.67 1020.53 1020.32 1020.22 1020.06 1020.57 1020.85 1021.10 1021.23 1021.38 1021.50
1013.20 1013.44 1013.86 1014.36 1014.77 1015.06 1015.36 1015.54 1015.78 1016.18 1016.61 1016.94 1017.26 1017.48 1017.76 1018.05 1018.32 1018.63 1018.79 1018.91 1018.97 1019.17 1019.44 1019.50 1019.76 1019.93 1020.13 1020.36 1020.63 1020.78 1020.78 1020.81 1020.64 1020.25 1020.40 1020.60 1020.38 1020.68 1020.82 1020.97 1021.23 1021.45 1021.73
1013.35 1013.67 1014.15 1014.66 1014.85 1015.15 1015.58 1015.75 1016.00 1016.29 1016.66 1016.99 1017.39 1017.70 1017.86 1018.22 1018.34 1018.63 1018.88 1018.97 1019.02 1019.24 1019.51 1019.80 1019.89 1020.19 1020.20 1020.23 1020.44 1020.73 1020.93 1020.84 1020.45 1020.34 1020.36 1020.46 1020.60 1020.92 1020.92 1021.04 1021.21 1021.50 1021.73
1013.62 1013.99 1014.28 1014.66 1014.99 1015.29 1015.64 1016.11 1016.35 1016.58 1016.96 1017.20 1017.46 1017.68 1018.00 1018.29 1018.52 1018.74 1018.92 1019.13 1019.22 1019.37 1019.58 1019.90 1019.96 1020.12 1020.40 1020.46 1020.44 1020.62 1020.76 1020.91 1020.60 1020.39 1020.32 1020.32 1020.71 1020.82 1020.85 1021.08 1021.26 1021.38 1021.60
1013.85 1014.11 1014.38 1014.65 1015.04 1015.37 1015.71 1016.16 1016.66 1016.84 1017.02 1017.33 1017.52 1017.84 1018.04 1018.39 1018.68 1018.92 1019.12 1019.23 1019.40 1019.60 1019.75 1019.89 1020.18 1020.22 1020.32 1020.55 1020.64 1020.66 1020.67 1020.71 1020.35 1020.36 1020.37 1020.21 1020.65 1020.66 1020.78 1021.08 1021.26 1021.49 1021.72
1014.30 1014.40 1014.55 1014.74 1014.86 1015.36 1015.76 1016.15 1016.43 1016.71 1017.01 1017.32 1017.70 1017.87 1018.26 1018.52 1018.73 1018.99 1019.20 1019.34 1019.43 1019.60 1019.80 1020.04 1020.12 1020.28 1020.37 1020.51 1020.62 1020.61 1020.64 1020.80 1020.24 1020.17 1020.20 1020.32 1020.62 1020.64 1020.71 1021.03 1021.29 1021.58 1021.82
1014.51 1014.68 1014.82 1015.15 1015.17 1015.47 1015.78 1016.07 1016.51 1016.84 1017.02 1017.35 1017.75 1018.10 1018.33 1018.48 1018.76 1018.98 1019.15 1019.44 1019.65 1019.62 1019.80 1019.91 1020.11 1020.21 1020.36 1020.40 1020.49 1020.62 1020.69 1020.12 1020.33 1020.12 1020.14 1020.46 1020.48 1020.44 1020.68 1021.07 1021.36 1021.62 1021.76
1014.22 1014.73 1015.20 1015.34 1015.46 1015.65 1015.80 1016.20 1016.44 1016.71 1017.06 1017.27 1017.46 1017.96 1018.16 1018.42 1018.58 1018.77 1019.14 1019.55 1019.76 1019.79 1019.86 1019.99 1020.16 1020.21 1020.22 1019.96 1019.96 1020.45 1020.18 1020.34 1020.27 1020.17 1019.99 1020.42 1020.12 1020.53 1021.04 1021.45 1021.75 1021.94 1022.27
1013.73 1014.26 1014.77 1015.14 1015.48 1015.89 1015.88 1016.26 1016.45 1016.87 1017.25 1017.48 1017.66 1017.87 1018.18 1018.49 1018.73 1018.94 1019.13 1019.30 1019.41 1019.82 1019.65 1019.73 1019.74 1019.82 1019.84 1019.94 1019.99 1020.17 1020.40 1020.42 1020.31 1020.41 1020.24 1020.49 1020.49 1020.94 1021.29 1021.72 1022.09 1022.39 1022.78
1013.04 1013.43 1014.14 1014.88 1015.30 1015.89 1016.18 1016.61 1016.76 1016.92 1017.22 1017.48 1017.68 1017.98 1018.19 1018.49 1018.82 1019.08 1019.24 1019.45 1019.57 1019.61 1019.63 1019.53 1019.52 1019.46 1019.84 1020.00 1020.13 1020.24 1020.35 1020.54 1020.39 1020.54 1020.82 1020.70 1020.92 1021.17 1021.50 1021.86 1022.30 1022.73 1022.90
1012.71 1013.25 1013.79 1014.69 1015.48 1016.02 1016.42 1016.72 1016.99 1017.14 1017.42 1017.64 1017.92 1018.27 1018.44 1018.70 1019.00 1019.26 1019.59 1019.86 1019.96 1019.98 1019.92 1019.80 1019.68 1019.78 1019.91 1020.18 1020.29 1020.33 1020.84 1021.24 1021.26 1021.28 1021.46 1021.38 1021.21 1021.48 1021.88 1022.15 1022.60 1023.14 1023.48
1012.42 1012.93 1013.79 1014.76 1015.43 1016.22 1016.68 1016.94 1017.13 1017.33 1017.64 1017.99 1018.19 1018.44 1018.70 1018.86 1019.18 1019.50 1019.71 1019.91 1020.12 1020.17 1020.36 1020.11 1019.94 1019.89 1020.10 1020.34 1020.70 1020.75 1021.11 1021.52 1021.73 1021.80 1022.14 1022.44 1022.34 1022.29 1022.54 1022.96 1023.37 1023.67 1024.01
1011.73 1012.53 1013.29 1014.34 1015.08 1015.95 1016.52 1017.08 1017.29 1017.44 1017.97 1018.33 1018.77 1018.94 1019.03 1019.26 1019.54 1019.71 1019.88 1020.06 1020.32 1020.53 1020.54 1020.65 1020.58 1020.53 1020.53 1020.97 1021.22 1021.43 1021.68 1022.06 1022.34 1022.80 1023.04 1023.04 1023.44 1023.62 1023.60 1023.87 1024.44 1024.49 1024.56
1011.68 1012.11 1012.88 1013.70 1014.70 1015.41 1015.94 1016.32 1016.90 1017.63 1018.34 1018.85 1019.26 1019.46 1019.50 1019.67 1020.01 1020.07 1020.23 1020.40 1020.57 1020.82 1020.84 1020.83 1020.74 1020.88 1021.13 1021.40 1021.75 1021.92 1022.27 1022.63 1022.99 1023.19 1023.55 1023.86 1023.67 1024.50 1024.72 1024.86 1025.10 1025.32 1025.33
1011.32 1012.17 1013.02 1013.91 1014.72 1015.68 1016.28 1017.00 1017.68 1018.40 1018.92 1019.19 1019.27 1019.59 1019.86 1020.16 1020.37 1020.30 1020.60 1021.00 1021.06 1020.85 1020.86 1021.02 1021.21 1021.23 1021.67 1021.93 1022.38 1022.80 1023.26 1023.19 1023.57 1023.75 1024.31 1024.48 1024.78 1025.31 1025.57 1026.06 1026.10 1026.19 1026.14
1010.96 1011.97 1013.17 1014.35 1015.02 1015.90 1016.61 1017.25 1018.14 1018.76 1019.16 1018.44 1018.95 1019.66 1020.15 1020.42 1020.59 1020.70 1020.87 1020.98 1021.26 1021.02 1021.12 1021.40 1021.47 1021.66 1022.07 1022.24 1023.00 1023.58 1024.07 1024.44 1024.23 1024.78 1025.27 1025.69 1025.69 1026.17 1026.42 1026.77 1026.60 1026.90 1026.91
1011.60 1012.41 1013.53 1014.40 1015.49 1015.88 1016.63 1017.54 1018.05 1018.88 1019.18 1019.17 1020.32 1020.71 1020.50 1020.70 1020.95 1020.80 1021.06 1021.08 1021.39 1021.53 1021.59 1021.56 1021.70 1021.88 1022.44 1022.84 1022.98 1024.27 1024.84 1025.31 1025.80 1025.90 1026.07 1026.46 1026.76 1026.93 1027.14 1027.26 1027.32 1027.43 1027.54
1012.54 1013.22 1014.02 1014.83 1015.96 1016.58 1016.91 1017.79 1018.28 1018.72 1019.63 1018.35 1020.22 1020.50 1020.99 1020.67 1021.16 1021.35 1021.43 1021.64 1021.26 1022.01 1022.03 1021.88 1021.61 1021.70 1022.12 1022.54 1022.46 1023.55 1024.77 1025.84 1026.33 1026.90 1026.97 1027.07 1027.31 1027.53 1027.82 1027.67 1027.88 1027.98 1027.89
1013.93 1014.23 1014.68 1015.36 1015.97 1016.96 1017.16 1017.73 1018.58 1019.24 1019.66 1020.03 1020.41 1020.57 1020.77 1021.44 1021.66 1021.54 1021.79 1021.38 1021.82 1021.82 1021.83 1021.92 1022.01 1021.66 1021.58 1022.27 1022.48 1022.38 1023.59 1024.12 1025.82 1027.04 1027.54 1027.61 1027.86 1028.01 1028.24 1028.31 1028.19 1028.41 1028.46
1015.06 1015.34 1015.61 1015.98 1016.37 1016.91 1017.22 1017.10 1017.54 1018.35 1019.08 1020.16 1020.21 1019.66 1020.31 1020.84 1021.57 1021.73 1021.87 1021.68 1021.48 1021.80 1021.96 1021.90 1021.91 1021.94 1021.83 1021.75 1022.36 1022.61 1022.76 1022.97 1024.04 1026.36 1027.54 1028.04 1027.97 1028.18 1028.54 1028.70 1028.70 1028.71 1028.85
1015.42 1015.50 1015.82 1016.16 1016.54 1016.56 1016.69 1017.09 1017.49 1017.96 1018.69 1019.82 1019.72 1019.78 1019.76 1020.12 1020.41 1021.08 1021.64 1021.50 1021.29 1021.42 1021.51 1021.80 1021.96 1022.09 1021.91 1021.83 1021.86 1022.25 1022.49 1022.94 1023.51 1024.14 1026.01 1027.56 1028.04 1028.14 1028.45 1028.71 1028.73 1028.72 1029.06
1015.80 1015.74 1016.00 1016.10 1016.61 1016.63 1016.90 1016.78 1016.67 1016.82 1017.58 1018.56 1018.60 1018.84 1019.07 1019.71 1020.42 1021.11 1021.48 1021.41 1021.25 1021.44 1021.78 1021.74 1021.77 1022.10 1022.02 1021.88 1021.93 1022.11 1021.84 1021.95 1022.49 1023.53 1024.77 1026.32 1026.93 1027.89 1028.41 1028.77 1028.74 1028.79 1029.04
Wind_Speed
9 17 18 16 12 9 9 15 15 17 17 18 17 17 17 15 14 13 12 10 11 13 15 15 14 14 15 14 14 13 12 11 11 12 11 12 12 12 12 11 6 13 11
14 17 17 18 15 12 10 15 16 17 18 18 17 16 15 14 13 13 12 11 11 13 14 15 14 13 14 13 12 11 11 10 10 9 9 11 10 11 11 11 7 13 12
15 16 18 16 16 15 13 14 15 16 17 17 17 16 15 14 12 11 11 11 11 13 14 13 14 13 13 12 9 10 9 9 8 8 6 6 9 8 10 10 10 11 11
16 15 16 16 16 15 14 14 14 15 16 16 16 16 15 13 12 11 10 11 11 12 15 13 13 13 11 9 9 9 8 8 7 4 5 7 8 10 9 9 9 10 10
13 14 14 15 15 15 15 14 13 13 14 14 14 15 14 14 12 11 10 10 11 11 13 13 12 12 10 8 9 8 7 6 5 2 4 5 6 10 10 8 10 9 4
11 12 14 14 14 14 14 14 14 14 13 13 12 13 13 13 13 11 10 9 10 10 11 12 11 10 10 9 8 7 6 5 1 4 2 2 4 10 10 8 7 8 7
11 10 13 8 11 13 13 13 13 13 13 13 12 11 12 11 12 10 9 9 9 10 10 10 9 8 8 8 8 6 5 4 2 2 3 3 5 8 10 9 8 7 8
10 9 10 11 10 10 11 11 11 11 11 11 11 11 11 10 10 10 9 9 8 8 9 8 8 8 7 6 7 5 4 2 2 0 1 2 4 9 9 10 8 7 8
8 8 8 9 10 8 9 9 9 10 11 11 11 11 10 10 9 9 8 8 8 8 8 7 6 6 6 6 5 4 2 2 3 1 2 1 3 8 7 8 8 7 7
7 7 7 8 9 9 10 9 10 10 10 10 10 10 9 9 9 8 8 8 8 8 7 6 6 5 4 4 4 2 2 2 3 3 2 1 2 8 7 8 8 7 6
6 7 6 6 7 8 9 9 9 9 10 9 9 8 8 6 7 8 5 7 7 7 7 7 7 6 4 3 2 2 3 2 3 3 2 0 5 10 8 11 11 9 6
11 9 6 7 7 7 7 9 9 9 8 8 8 9 6 6 6 5 5 5 5 5 4 4 5 6 7 3 3 3 2 2 2 3 2 3 7 15 18 18 16 16 17
13 10 11 10 9 8 7 6 5 4 5 5 8 7 6 5 4 4 3 3 3 2 3 5 6 5 5 4 2 2 3 3 2 2 4 7 17 18 18 20 20 19 16
15 15 13 12 10 10 5 5 5 5 5 5 6 7 5 4 4 3 2 2 2 1 1 1 2 2 4 2 2 5 6 5 4 6 9 15 15 18 21 21 21 18 19
16 14 14 12 10 9 6 5 5 5 5 5 5 5 4 4 3 3 2 1 1 1 1 1 2 4 4 4 5 8 7 7 8 5 5 9 10 18 19 21 20 19 19
15 14 12 12 9 7 4 5 5 4 4 4 4 4 5 3 3 3 2 1 1 0 1 1 2 4 4 5 6 8 8 8 10 9 9 11 19 18 19 20 20 19 18
15 13 14 11 9 9 10 6 5 4 4 4 4 3 4 4 3 3 2 1 1 2 3 2 3 4 4 5 7 7 8 8 9 9 8 8 12 20 20 21 19 19 18
13 15 13 9 9 10 9 7 5 5 4 5 4 3 5 5 4 3 1 2 3 2 2 3 3 4 4 4 5 5 7 7 10 10 8 9 9 8 14 20 20 18 17
14 13 13 11 11 11 10 8 8 8 6 4 4 3 7 6 5 3 2 2 2 3 3 3 3 3 4 6 6 7 6 6 7 9 12 11 11 10 9 17 18 17 16
12 12 11 9 11 12 10 9 8 6 7 8 4 5 5 5 5 4 3 4 2 2 3 2 3 4 4 6 8 8 7 7 7 8 9 8 11 10 9 8 8 11 16
7 10 13 12 11 10 8 6 6 5 5 5 4 4 5 5 4 3 2 3 2 1 2 4 4 6 4 8 7 6 7 9 9 8 7 8 9 9 9 8 6 5 8
10 10 10 10 9 6 7 5 4 5 2 7 4 3 1 5 5 3 2 1 3 2 3 4 5 4 3 6 4 5 3 3 6 6 6 7 8 6 7 8 8 8 7
10 11 12 12 12 9 11 8 7 5 4 3 2 3 3 1 2 1 2 1 2 3 3 4 4 5 5 7 6 3 4 4 4 3 6 5 6 6 6 6 8 8 8
9 10 12 11 11 9 9 8 5 4 4 2 2 4 6 5 1 2 3 3 3 2 3 3 3 4 4 8 4 3 2 4 5 4 3 3 5 6 5 5 6 8 7
7 10 10 11 9 11 10 7 7 7 4 3 5 7 5 5 4 5 4 3 3 3 4 4 3 5 6 4 7 5 4 3 4 4 5 5 3 4 5 4 5 6 7
6 8 10 9 10 9 9 10 11 11 6 7 5 4 4 4 3 4 4 3 2 2 3 3 4 5 5 5 5 6 6 5 7 4 3 6 7 5 4 4 5 5 6
Wind_Direction
163 149 155 162 171 185 156 129 127 122 122 122 124 125 124 126 126 123 118 117 111 106 104 100 98 98 97 98 99 99 96 97 102 101 97 101 103 102 96 86 124 102 95
144 152 155 160 165 170 165 137 132 127 126 124 125 126 125 127 128 125 124 118 115 108 104 104 100 98 99 99 99 96 95 94 91 91 95 101 102 106 102 98 75 91 89
149 152 160 160 160 162 162 140 135 130 128 130 130 129 128 129 127 128 123 119 120 115 112 106 105 105 104 100 93 95 96 97 98 96 99 111 103 111 110 107 102 103 100
154 155 161 160 158 156 156 145 139 135 134 135 135 134 133 131 131 129 128 128 126 125 120 117 113 108 103 97 100 95 91 94 87 101 101 113 121 124 123 121 117 113 111
160 158 160 160 156 156 153 148 143 139 140 140 141 139 138 138 137 137 134 130 128 125 122 120 116 113 106 103 100 94 90 88 86 197 103 126 126 132 140 138 137 130 123
159 162 154 156 156 156 155 150 146 145 145 145 145 144 145 145 144 142 142 135 131 129 125 121 121 119 119 114 104 98 88 87 218 95 89 177 177 142 150 144 130 128 127
155 159 161 151 155 154 157 153 149 149 150 149 147 147 147 150 147 146 148 142 140 139 130 130 128 127 125 121 111 97 73 69 13 83 68 89 198 182 162 154 150 151 150
150 155 160 161 161 158 155 152 152 152 153 152 153 152 151 153 150 151 152 142 144 135 126 133 135 133 128 122 117 110 97 26 202 348 65 86 151 211 175 165 162 150 154
149 151 156 168 169 152 148 149 154 156 159 160 159 158 154 157 158 157 153 149 144 139 137 141 136 130 128 128 125 123 106 40 298 317 303 137 87 196 173 165 168 169 162
153 158 163 169 164 170 170 152 159 164 160 161 164 158 153 157 160 159 157 156 151 147 146 146 147 140 125 116 131 161 179 212 267 265 275 353 267 197 170 159 167 172 178
169 175 170 172 163 163 172 169 158 163 163 158 159 153 147 167 170 166 155 159 163 155 165 172 177 170 160 159 211 243 260 233 252 263 234 325 256 187 131 109 103 115 95
190 186 181 177 174 170 172 173 174 172 175 173 167 166 162 166 170 170 161 172 182 184 196 199 202 191 189 237 222 201 260 268 246 253 222 263 124 111 104 97 90 82 80
194 194 187 186 184 182 177 176 169 166 166 165 163 161 156 158 158 157 154 171 182 172 224 218 214 212 211 209 213 181 136 146 93 62 106 110 96 114 110 103 96 93 90
197 200 192 192 182 187 182 182 168 162 166 167 165 161 158 157 160 158 165 149 156 160 204 276 280 69 75 72 150 146 134 107 95 103 100 108 114 114 109 105 98 96 91
210 206 204 192 192 186 184 172 174 167 174 168 158 156 147 141 147 142 120 107 85 79 119 135 90 91 104 97 122 131 111 94 94 79 81 39 104 114 112 108 102 94 84
212 208 203 201 188 172 186 170 174 161 160 154 143 139 128 122 128 135 135 132 143 50 14 78 83 101 103 101 92 105 102 94 88 78 73 61 61 74 87 93 91 90 85
212 203 197 183 158 161 182 174 172 151 139 115 90 97 109 108 132 128 139 147 95 72 97 97 82 90 110 103 96 93 89 86 84 78 77 81 69 62 71 81 77 79 81
218 204 188 165 159 166 157 153 133 113 102 86 63 55 52 59 49 72 85 98 98 96 91 96 97 102 97 103 108 99 96 91 91 88 87 84 88 77 67 74 75 74 72
222 206 191 163 153 147 116 94 82 72 63 72 102 79 60 58 57 75 69 76 97 110 105 112 94 80 113 107 98 88 74 82 89 96 89 86 80 88 87 81 80 77 73
215 196 164 131 137 124 107 102 94 91 100 68 34 68 51 62 60 69 93 112 102 111 118 110 115 84 117 115 98 76 60 52 81 86 89 89 90 92 94 94 90 76 70
169 147 131 134 132 133 131 128 123 119 130 81 63 40 45 50 67 87 103 114 110 147 140 141 121 128 127 135 113 84 61 57 54 64 85 93 88 88 96 91 91 89 77
92 105 121 114 118 100 89 71 65 116 332 110 116 79 37 43 24 21 27 179 89 198 197 187 171 151 139 174 155 127 145 108 62 47 81 87 92 92 86 87 84 79 80
75 91 102 109 101 100 110 114 98 94 75 66 115 155 94 49 268 242 244 115 203 211 204 196 203 192 173 185 209 181 161 178 131 70 58 84 95 96 94 90 92 86 83
82 95 104 108 118 139 149 134 144 131 122 214 200 143 160 147 241 289 240 194 179 189 224 215 202 219 208 198 187 210 343 130 170 154 115 96 112 107 99 96 96 92 82
114 121 125 128 150 164 162 153 138 130 128 176 178 175 157 160 167 201 222 216 198 200 201 215 206 218 218 232 225 181 177 159 159 146 158 164 128 128 119 121 115 110 98
113 130 146 149 161 174 185 173 164 166 164 191 184 168 167 165 184 236 232 239 210 218 229 217 210 223 229 232 231 225 199 184 178 165 133 161 166 156 142 134 128 126 120